TimeEDT,TemperatureF,Dew PointF,Humidity,Sea Level PressureIn,VisibilityMPH,Wind Direction,Wind SpeedMPH,Gust SpeedMPH,PrecipitationIn,Events,Conditions,WindDirDegrees,DateUTC
12:15 AM,60.8,60.8,100,30.08,10.0,Calm,Calm,-,0.00,,Clear,0,2012-10-26 04:15:00
12:35 AM,60.8,59.0,94,30.07,10.0,Calm,Calm,-,0.00,,Clear,0,2012-10-26 04:35:00
12:55 AM,60.8,57.2,88,30.07,10.0,Calm,Calm,-,0.00,,Clear,0,2012-10-26 04:55:00
1:15 AM,60.8,59.0,94,30.07,10.0,Calm,Calm,-,0.00,,Clear,0,2012-10-26 05:15:00
2:15 AM,59.0,57.2,94,30.06,10.0,North,3.5,-,0.00,,Clear,10,2012-10-26 06:15:00
2:35 AM,57.2,57.2,100,30.06,10.0,NE,3.5,-,0.00,,Clear,50,2012-10-26 06:35:00
3:15 AM,59.0,57.2,94,30.05,10.0,NE,3.5,-,0.00,,Clear,40,2012-10-26 07:15:00
3:35 AM,59.0,57.2,94,30.04,10.0,NE,4.6,-,0.00,,Clear,40,2012-10-26 07:35:00
3:55 AM,60.8,59.0,94,30.04,10.0,NE,4.6,-,0.00,,Clear,40,2012-10-26 07:55:00
4:15 AM,60.8,59.0,94,30.04,8.0,NNE,3.5,-,0.00,,Clear,30,2012-10-26 08:15:00
4:35 AM,59.0,59.0,100,30.03,7.0,Calm,Calm,-,0.00,,Clear,0,2012-10-26 08:35:00
4:55 AM,59.0,59.0,100,30.04,8.0,Calm,Calm,-,0.00,,Clear,0,2012-10-26 08:55:00
5:15 AM,60.8,59.0,94,30.04,10.0,NNE,4.6,-,0.00,,Clear,30,2012-10-26 09:15:00
5:35 AM,60.8,59.0,94,30.04,10.0,NE,3.5,-,0.00,,Clear,40,2012-10-26 09:35:00
5:55 AM,59.0,57.2,94,30.04,8.0,Calm,Calm,-,0.00,,Clear,0,2012-10-26 09:55:00
6:15 AM,59.0,57.2,94,30.04,6.0,North,3.5,-,0.00,,Clear,360,2012-10-26 10:15:00
6:35 AM,59.0,57.2,94,30.04,6.0,North,4.6,-,0.00,,Clear,10,2012-10-26 10:35:00
6:55 AM,60.8,59.0,94,30.04,10.0,NNE,5.8,-,0.00,,Clear,30,2012-10-26 10:55:00
7:15 AM,60.8,59.0,94,30.04,9.0,NNE,6.9,-,0.00,,Clear,30,2012-10-26 11:15:00
7:35 AM,60.8,59.0,94,30.05,9.0,NNE,6.9,-,0.00,,Clear,20,2012-10-26 11:35:00
7:55 AM,60.8,59.0,94,30.05,5.0,North,6.9,-,0.00,,Clear,10,2012-10-26 11:55:00
8:15 AM,60.8,59.0,94,30.06,6.0,NNE,6.9,-,0.00,,Clear,20,2012-10-26 12:15:00
8:35 AM,60.8,60.8,100,30.06,7.0,NNE,5.8,-,0.00,,Clear,20,2012-10-26 12:35:00
8:55 AM,60.8,60.8,100,30.06,8.0,NNE,8.1,-,0.00,,Clear,20,2012-10-26 12:55:00
9:15 AM,62.6,60.8,94,30.07,9.0,NNE,8.1,-,0.00,,Clear,30,2012-10-26 13:15:00
9:35 AM,64.4,60.8,88,30.08,10.0,NNE,9.2,-,0.00,,Clear,30,2012-10-26 13:35:00
9:55 AM,64.4,60.8,88,30.08,10.0,NNE,9.2,-,0.00,,Clear,20,2012-10-26 13:55:00
10:15 AM,66.2,60.8,83,30.08,10.0,NNE,12.7,-,0.00,,Clear,20,2012-10-26 14:15:00
10:55 AM,69.8,62.6,78,30.06,10.0,NE,10.4,-,0.00,,Clear,40,2012-10-26 14:55:00
11:15 AM,69.8,60.8,73,30.06,10.0,NE,9.2,18.4,0.00,,Clear,40,2012-10-26 15:15:00
11:35 AM,71.6,60.8,69,30.06,10.0,NE,12.7,18.4,0.00,,Clear,40,2012-10-26 15:35:00
11:55 AM,73.4,60.8,65,30.05,10.0,NNE,11.5,19.6,0.00,,Clear,20,2012-10-26 15:55:00
12:15 PM,73.4,60.8,65,30.04,10.0,NE,11.5,-,0.00,,Clear,40,2012-10-26 16:15:00
12:35 PM,73.4,60.8,65,30.03,10.0,NE,11.5,-,0.00,,Clear,40,2012-10-26 16:35:00
12:55 PM,75.2,59.0,57,30.03,10.0,NNE,13.8,17.3,0.00,,Clear,20,2012-10-26 16:55:00
1:15 PM,75.2,57.2,53,30.02,10.0,NE,15.0,24.2,0.00,,Clear,40,2012-10-26 17:15:00
1:35 PM,75.2,57.2,53,30.00,10.0,NNE,11.5,-,0.00,,Clear,20,2012-10-26 17:35:00
1:55 PM,75.2,55.4,50,29.99,10.0,NNE,17.3,-,0.00,,Clear,30,2012-10-26 17:55:00
2:15 PM,75.2,55.4,50,29.98,10.0,NNE,13.8,17.3,0.00,,Clear,20,2012-10-26 18:15:00
2:35 PM,75.2,55.4,50,29.98,10.0,NE,15.0,-,0.00,,Clear,40,2012-10-26 18:35:00
2:55 PM,75.2,55.4,50,29.97,10.0,NE,11.5,-,0.00,,Clear,40,2012-10-26 18:55:00
3:15 PM,75.2,53.6,47,29.96,10.0,NE,15.0,-,0.00,,Clear,40,2012-10-26 19:15:00
4:15 PM,73.4,53.6,50,29.95,10.0,NNE,12.7,-,0.00,,Clear,30,2012-10-26 20:15:00
4:35 PM,73.4,57.2,57,29.95,10.0,NNE,10.4,-,0.00,,Clear,20,2012-10-26 20:35:00
4:55 PM,73.4,55.4,53,29.95,10.0,NE,10.4,18.4,0.00,,Clear,40,2012-10-26 20:55:00
5:15 PM,71.6,57.2,60,29.95,10.0,NNE,11.5,-,0.00,,Clear,20,2012-10-26 21:15:00
5:35 PM,69.8,57.2,64,29.95,10.0,NNE,12.7,-,0.00,,Clear,20,2012-10-26 21:35:00
5:55 PM,69.8,57.2,64,29.95,10.0,NNE,12.7,16.1,0.00,,Clear,30,2012-10-26 21:55:00
6:15 PM,68.0,59.0,73,29.95,9.0,NNE,11.5,-,0.00,,Clear,20,2012-10-26 22:15:00
6:35 PM,68.0,59.0,73,29.95,9.0,NNE,9.2,-,0.00,,Clear,30,2012-10-26 22:35:00
6:55 PM,66.2,60.8,83,29.95,9.0,NNE,8.1,-,0.00,,Clear,20,2012-10-26 22:55:00
7:35 PM,66.2,60.8,83,29.95,10.0,NNE,9.2,-,0.00,,Clear,30,2012-10-26 23:35:00
7:55 PM,66.2,60.8,83,29.95,10.0,NNE,9.2,-,0.00,,Clear,20,2012-10-26 23:55:00
8:15 PM,66.2,60.8,83,29.94,10.0,NNE,9.2,-,0.00,,Clear,30,2012-10-27 00:15:00
8:35 PM,66.2,60.8,83,29.94,9.0,NNE,10.4,16.1,0.00,,Clear,20,2012-10-27 00:35:00
8:55 PM,66.2,60.8,83,29.94,9.0,NNE,10.4,-,0.00,,Clear,20,2012-10-27 00:55:00
9:15 PM,64.4,60.8,88,29.93,9.0,NNE,11.5,-,0.00,,Clear,30,2012-10-27 01:15:00
9:35 PM,64.4,60.8,88,29.93,8.0,NNE,11.5,-,0.00,,Clear,30,2012-10-27 01:35:00
9:55 PM,66.2,60.8,83,29.93,8.0,NNE,10.4,-,0.00,,Clear,30,2012-10-27 01:55:00
10:15 PM,64.4,60.8,88,29.93,8.0,NNE,11.5,-,0.00,,Clear,30,2012-10-27 02:15:00
10:35 PM,64.4,60.8,88,29.92,8.0,NNE,12.7,-,0.00,,Clear,30,2012-10-27 02:35:00
10:55 PM,64.4,60.8,88,29.92,8.0,NNE,10.4,-,0.00,,Clear,30,2012-10-27 02:55:00
11:15 PM,64.4,60.8,88,29.91,9.0,NNE,10.4,18.4,0.00,,Clear,30,2012-10-27 03:15:00
11:35 PM,64.4,60.8,88,29.90,8.0,NNE,9.2,-,0.00,,Clear,20,2012-10-27 03:35:00
11:55 PM,64.4,60.8,88,29.90,8.0,NNE,9.2,-,0.00,,Clear,20,2012-10-27 03:55:00